Location: Rastatt
(48.8500°N, 8.2000°E)
Time: 17:22:50
(UTC+02:00)

ISS - Visible Passes

Search period start: 18 July 2024 00:00
Search period end: 28 July 2024 00:00
Orbit: 410 x 424 km, 51.6° (Epoch: 18 July)

Date Brightness Start Highest point End Pass type
(mag) Time Alt. Az. Time Alt. Az. Time Alt. Az.
18 Jul -1.5 01:28:06 10° W 01:28:57 16° W 01:28:57 16° W visible
18 Jul -3.3 23:02:48 10° WNW 23:06:05 59° N 23:09:07 12° E visible
19 Jul -2.8 00:39:36 10° WNW 00:41:59 36° WSW 00:41:59 36° WSW visible
19 Jul -3.0 22:14:21 10° WNW 22:17:37 52° N 22:20:52 10° E visible
19 Jul -3.9 23:51:09 10° WNW 23:54:27 67° SSW 23:55:01 53° SSE visible
20 Jul -3.9 23:02:42 10° WNW 23:06:01 89° NNE 23:08:04 21° ESE visible
21 Jul -1.5 00:39:50 10° W 00:40:57 16° WSW 00:40:57 16° WSW visible
21 Jul -3.5 22:14:12 10° WNW 22:17:31 69° NNE 22:20:50 10° E visible
21 Jul -2.8 23:51:06 10° W 23:54:00 32° SW 23:54:00 32° SW visible
22 Jul -3.4 23:02:28 10° WNW 23:05:40 48° SSW 23:07:03 28° SSE visible
23 Jul -3.8 22:13:51 10° WNW 22:17:10 70° SSW 22:20:07 12° ESE visible
23 Jul -1.6 23:51:26 10° W 23:52:59 15° SW 23:52:59 15° SW visible
24 Jul -2.2 23:02:20 10° W 23:05:01 23° SW 23:06:04 19° S visible
25 Jul -2.7 22:13:28 10° W 22:16:31 34° SSW 22:19:09 13° SSE visible
26 Jul -1.2 23:03:33 10° SW 23:04:01 10° SW 23:04:29 10° SW visible
27 Jul -1.5 22:13:23 10° W 22:15:32 16° SW 22:17:41 10° S visible
